This is the latest recevied weather packets stored in our database for station/object OK3FM-14. If no packets are shown the sender has not sent any weather packets the latest 10 day(s).
| Time | Temp. | Humidity | Pressure | Rain* | Wind** | Luminosity | Snow |
|---|---|---|---|---|---|---|---|
| 1787768842 | 17.78° C | 66% | 1020.8 hPa | - | - | - | - |
| 1787768241 | 17.78° C | 65% | 1020.7 hPa | - | - | - | - |
| 1787767641 | 17.78° C | 64% | 1020.7 hPa | - | - | - | - |
| 1787767042 | 18.33° C | 63% | 1020.8 hPa | - | - | - | - |
| 1787766444 | 18.33° C | 62% | 1020.6 hPa | - | - | - | - |
| 1787765841 | 18.89° C | 61% | 1020.6 hPa | - | - | - | - |
| 1787765241 | 18.89° C | 61% | 1020.5 hPa | - | - | - | - |
| 1787764641 | 19.44° C | 60% | 1020.5 hPa | - | - | - | - |
| 1787764041 | 19.44° C | 60% | 1020.5 hPa | - | - | - | - |
| 1787763441 | 20° C | 60% | 1020.5 hPa | - | - | - | - |
| 1787762842 | 20° C | 60% | 1020.5 hPa | - | - | - | - |
| 1787762241 | 20° C | 60% | 1020.5 hPa | - | - | - | - |
| 1787761641 | 20° C | 59% | 1020.5 hPa | - | - | - | - |
| 1787761041 | 20° C | 59% | 1020.6 hPa | - | - | - | - |
| 1787760441 | 20.56° C | 59% | 1020.5 hPa | - | - | - | - |
| 1787759843 | 20° C | 59% | 1020.5 hPa | - | - | - | - |
| 1787759241 | 20.56° C | 59% | 1020.5 hPa | - | - | - | - |
| 1787758642 | 20.56° C | 59% | 1020.5 hPa | - | - | - | - |
| 1787758041 | 20.56° C | 60% | 1020.6 hPa | - | - | - | - |
| 1787757441 | 20.56° C | 58% | 1020.5 hPa | - | - | - | - |
| 1787756842 | 21.11° C | 59% | 1020.5 hPa | - | - | - | - |
| 1787756241 | 20.56° C | 58% | 1020.6 hPa | - | - | - | - |
| 1787755641 | 20.56° C | 60% | 1020.5 hPa | - | - | - | - |
| 1787755041 | 20.56° C | 61% | 1020.6 hPa | - | - | - | - |
| 1787754442 | 20.56° C | 61% | 1020.6 hPa | - | - | - | - |
* Rain since midnight (hover to see other rain measurements)
** Current wind speed in m/s (hover to see current wind gust speed)